Location: Gilevgi
(36.8751°N, 30.0581°E)
Time: 21:26:44
(UTC+00:00)

SKYMED 2 - Pass Details

Date: 11 December 2025
Orbit: 622 x 623 km, 97.9° (Epoch: 12 January)

Event Time Altitude Azimuth Distance (km) Brightness Sun altitude
Exits shadow 15:20:55 - 27° (NNE) 2,668 6.4 -7.6°
Reaches altitude 10° 15:22:45 10° 37° (NE) 1,996 5.6 -7.9°
Maximum altitude 15:26:30 28° 96° (E) 1,169 4.5 -8.6°
Drops below altitude 10° 15:30:13 10° 156° (SSE) 1,983 6.1 -9.3°
Sets 15:32:39 0° 168° (SSE) 2,884 7.1 -9.7°
